SCP
0 0 0 0 0 0 0 0 0 0 0 0 0 0 0 0 0 0 0 0 0 0 0 0 0 0 0 0 0 0 0 0 0 0 0 0 0 0 0 0 0 0 0
0 0 0 0 0 0 0 0 0 0 0 0 0 0 0 0 0 0 0 0 0 0 0 0 0 0 0 0 0 0 0 0 0 0 0 0 0 0 0 0 0 0 0
0 0 0 0 0 0 0 0 0 0 0 0 0 0 0 0 0 0 0 0 0 0 0 0 0 0 0 0 0 0 0 0 0 0 0 0 0 0 0 0 0 0 0
0 0 0 0 0 0 0 0 0 0 0 0 0 0 0 0 0 0 0 0 0 0 0 0 0 0 0 0 0 0 0 0 0 0 0 0 0 0 0 0 0 0 0
0 0 0 0 0 0 0 0 0 0 0 0 0 0 0 0 0 0 0 0 0 0 0 0 0 0 0 0 0 0 0 0 0 0 0 0 0 0 0 0 0 0 0
0 0 0 0 0 0 0 0 0 0 0 0 0 0 0 0 0 0 0 0 0 0 0 0 0 0 0 0 0 0 0 0 0 0 0 0 0 0 0 0 0 0 0
0 0 0 0 0 0 0 0 0 0 0 0 0 0 0 0 0 0 0 0 0 0 0 0 0 0 0 0 0 0 0 0 0 0 0 0 0 0 0 0 0 0 0
0 0 0 0 0 0 0 0 0 0 0 0 0 0 0 0 0 0 0 0 0 0 0 0 0 0 0 0 0 0 0 0 0 0 0 0 0 0 0 0 0 0 0
0 0 0 0 0 0 0 0 0 0 0 0 0 0 0 0 0 0 0 0 0 0 0 0 0 0 0 0 0 0 0 0 0 0 0 0 0 0 0 0 0 0 0
0 0 0 0 0 0 0 0 0 0 0 0 0 0 0 0 0 0 0 0 0 0 0 0 0 0 0 0 0 0 0 0 0 0 0 0 0 0 0 0 0 0 0
0 0 0 0 0 0 0 0 0 0 0 0 0 0 0 0 0 0 0 0 0 0 0 0 0 0 0 0 0 0 0 0 0 0 0 0 0 0 0 0 0 0 0
0 0 0 0 0 0 0 0 0 0 0 0 0 0 0 0 0 0 0 0 0 0 0 0 0 0 0 0 0 0 0 0 0 0 0 0 0 0 0 0 0 0 0
0 0 0 0 0 0 0 0 0 0 0 0 0 0 0 0 0 0 0 0 0 0 0 0 0 0 0 0 0 0 0 0 0 0 0 0 0 0 0 0 0 0 0
0 0 0 0 0 0 0 0 0 0 0 0 0 0 0 0 0 0 0 0 0 0 0 0 0 0 0 0 0 0 0 0 0 0 0 0 0 0 0 0 0 0 0
0 0 0 0 0 0 0 0 0 0 0 0 0 0 0 0 0 0 0 0 0 0 0 0 0 0 0 0 0 0 0 0 0 0 0 0 0 0 0 0 0 0 0
0 0 0 0 0 0 0 0 0 0 0 0 0 0 0 0 0 0 0 0 0 0 0 0 0 0 0 0 0 0 0 0 0 0 0 0 0 0 0 0 0 0 0
0 0 0 0 0 0 0 0 0 0 0 0 0 0 0 0 0 0 0 0 0 0 0 0 0 0 0 0 0 0 0 0 0 0 0 0 0 0 0 0 0 0 0
0 0 0 0 0 0 0 0 0 0 0 0 0 0 0 0 0 0 0 0 0 0 0 0 0 0 0 0 0 0 0 0 0 0 0 0 0 0 0 0 0 0 0
0 0 0 0 0 0 0 0 0 0 0 0 0 0 0 0 0 0 0 0 0 0 0 0 0 0 0 0 0 0 0 0 0 0 0 0 0 0 0 0 0 0 0
0 0 0 0 0 0 0 0 0 0 0 0 0 0 0 0 0 0 0 0 0 0 0 0 0 0 0 0 0 0 0 0 0 0 0 0 0 0 0 0 0 0 0
0 0 0 0 0 0 0 0 0 0 0 0 0 0 0 0 0 0 0 0 0 0 0 0 0 0 0 0 0 0 0 0 0 0 0 0 0 0 0 0 0 0 0
0 0 0 0 0 0 0 0 0 0 0 0 0 0 0 0 0 0 0 0 0 0 0 0 0 0 0 0 0 0 0 0 0 0 0 0 0 0 0 0 0 0 0
0 0 0 0 0 0 0 0 0 0 0 0 0 0 0 0 0 0 0 0 0 0 0 0 0 0 0 0 0 0 0 0 0 0 0 0 0 0 0 0 0 0 0
0 0 0 0 0 0 0 0 0 0 0 0 0 0 0 0 0 0 0 0 0 0 0 0 0 0 0 0 0 0 0 0 0 0 0 0 0 0 0 0 0 0 0
0 0 0 0 0 0 0 0 0 0 0 0 0 0 0 0 0 0 0 0 0 0 0 0 0 0 0 0 0 0 0 0 0 0 0 0 0 0 0 0 0 0 0
0 0 0 0 0 0 0 0 0 0 0 0 0 0 0 0 0 0 0 0 0 0 0 0 0 0 0 0 0 0 0 0 0 0 0 0 0 0 0 0 0 0 0
Wind_Speed
7 8 15 15 15 15 14 14 13 13 13 13 12 11 10 10 10 10 11 12 12 13 13 13 13 13 13 13 14 14 14 14 14 13 12 11 11 12 11 10 9 6 11
9 10 15 15 15 15 15 14 14 14 13 12 12 10 10 10 10 11 11 12 13 13 13 13 12 12 12 12 13 13 13 13 12 11 9 7 8 11 11 10 8 5 9
13 10 13 15 14 15 15 15 15 14 13 12 11 10 10 10 11 11 12 13 13 13 13 13 12 12 11 11 11 11 11 9 8 7 6 3 4 9 10 9 8 8 8
13 10 11 15 15 16 16 16 15 14 13 12 10 10 10 10 11 12 13 13 13 13 13 12 12 11 11 10 10 10 8 7 5 4 2 1 2 8 9 9 8 9 8
10 8 11 15 16 16 16 16 15 14 13 11 10 9 10 11 12 13 13 13 13 13 12 11 11 10 9 9 9 9 9 8 8 6 3 2 2 8 10 10 10 10 9
9 8 10 15 16 16 16 16 15 14 12 11 10 10 11 12 13 13 13 13 12 12 11 10 10 8 8 7 8 9 9 9 8 5 4 3 3 9 11 11 11 11 11
9 8 9 14 16 16 15 15 15 14 12 11 10 11 12 12 13 13 12 12 11 11 10 9 8 7 6 6 7 8 9 9 6 5 4 3 5 11 11 11 11 11 11
12 9 9 14 14 14 15 15 14 14 13 11 11 11 12 12 12 12 11 11 10 10 9 8 7 6 4 4 4 7 8 7 7 5 4 4 8 10 10 10 10 10 9
11 9 7 9 10 13 13 13 13 13 12 11 10 10 10 10 10 11 10 10 9 9 8 7 7 5 4 2 2 4 5 6 4 3 4 3 8 9 9 9 8 8 8
8 8 7 7 7 7 8 11 11 11 11 10 9 9 9 8 8 8 7 8 8 8 7 7 6 5 4 3 1 2 4 5 3 3 2 4 9 9 8 8 8 8 8
7 6 7 7 6 6 6 8 9 10 10 9 8 10 8 4 4 4 5 6 6 7 7 7 6 5 3 3 3 1 2 2 3 2 2 7 9 9 8 7 7 7 7
8 6 6 7 7 6 6 5 4 4 5 5 4 5 4 4 3 4 6 7 7 7 7 7 7 5 3 2 3 2 1 2 3 3 3 9 10 9 8 7 7 7 7
8 7 7 7 7 6 4 5 3 3 3 4 5 5 4 3 3 3 2 4 4 5 3 4 4 2 2 2 2 2 2 2 2 3 4 10 11 10 9 8 8 7 7
7 7 7 7 7 7 5 5 5 4 4 4 5 6 4 3 3 3 3 4 3 3 3 3 2 4 4 4 4 4 3 3 3 3 5 10 11 11 10 10 9 8 8
6 7 7 7 7 7 6 5 5 5 5 6 5 6 6 5 5 5 4 4 5 4 4 4 4 5 5 5 5 5 5 5 5 5 4 11 12 12 12 11 11 10 9
6 6 6 6 6 6 5 5 5 5 5 5 5 7 8 6 6 6 6 6 6 5 5 5 6 6 5 4 5 6 6 5 5 6 5 7 12 12 13 13 12 12 11
6 5 5 6 6 6 6 6 4 4 5 5 6 7 8 8 7 7 6 6 7 6 6 5 6 5 5 5 6 6 5 5 5 6 6 5 6 11 13 15 14 13 13
5 4 4 4 5 5 5 5 4 4 4 4 5 5 8 8 8 7 6 7 7 6 6 6 5 5 5 5 4 4 4 4 6 6 6 5 5 5 9 15 15 15 14
4 3 3 2 3 4 4 4 4 3 4 4 4 4 5 7 7 7 6 6 6 6 6 6 6 5 6 6 5 5 4 4 5 6 6 7 7 6 6 11 14 14 14
4 4 3 1 0 2 2 2 2 3 3 3 3 4 5 5 6 6 5 6 6 5 6 6 6 6 5 5 5 5 5 5 4 5 7 7 7 8 7 7 7 9 14
5 5 4 3 2 1 1 1 2 3 3 3 3 4 5 5 5 6 5 5 5 6 7 7 6 6 6 3 2 3 3 4 5 5 5 6 8 9 8 8 6 5 6
5 5 5 4 3 2 1 1 1 2 2 3 3 3 4 4 5 5 6 5 6 6 7 7 6 4 4 4 4 3 3 4 5 6 5 7 8 6 8 10 8 8 6
5 4 4 4 4 3 2 1 1 1 2 2 2 2 3 4 4 5 6 6 6 6 6 7 7 8 6 5 5 5 4 6 4 3 5 7 7 7 7 7 9 9 9
3 3 4 4 4 4 3 2 2 1 1 2 2 3 4 4 4 4 5 5 6 5 6 7 7 7 7 6 5 5 5 4 4 3 3 4 5 7 7 7 8 8 9
4 4 4 5 5 5 5 4 3 2 1 2 2 3 4 4 4 4 4 4 4 4 5 6 6 7 6 7 6 4 6 4 4 4 5 3 2 3 4 5 5 6 8
4 4 4 5 5 5 5 5 4 3 3 3 3 4 3 3 3 5 5 4 4 4 5 5 6 6 6 7 6 5 5 4 5 6 8 5 4 2 2 2 3 4 5
Wind_Direction
153 157 150 147 145 143 140 136 131 125 119 113 107 103 102 102 103 105 103 100 97 93 90 86 84 83 83 84 86 88 88 87 85 84 81 78 77 81 89 84 83 72 81
146 153 149 147 145 142 137 131 125 121 117 112 108 106 108 110 113 112 108 105 102 97 94 91 89 88 86 87 89 90 90 90 89 87 77 72 81 83 86 89 92 88 84
141 148 147 145 143 139 135 130 126 122 118 113 111 111 113 118 121 117 112 109 104 100 98 96 95 92 90 89 89 90 90 92 93 93 83 63 86 93 90 89 91 90 88
141 144 148 144 143 139 135 132 128 124 119 115 115 116 119 125 126 122 116 112 108 105 103 101 99 97 94 91 89 86 84 81 84 103 93 47 80 99 96 90 88 86 84
133 139 148 145 144 141 138 135 131 127 124 120 120 121 124 126 127 124 118 115 113 112 111 109 106 102 97 92 87 80 74 74 85 93 95 77 75 98 93 86 84 82 81
127 134 149 146 145 143 141 139 136 133 130 127 126 129 128 124 125 123 121 121 121 121 119 116 113 108 100 93 85 75 71 86 94 93 90 81 78 95 92 89 86 81 81
132 139 150 148 147 146 145 143 140 138 137 136 135 135 130 127 128 127 128 130 131 131 129 126 123 118 108 96 83 73 77 95 99 96 96 89 94 98 93 89 85 81 80
142 145 150 150 148 148 148 147 145 144 144 144 143 140 136 133 134 136 137 140 142 142 141 139 137 135 128 110 88 80 85 101 106 106 104 101 107 102 97 94 91 87 84
144 144 145 149 150 151 151 151 151 151 150 150 149 145 140 138 143 146 148 151 154 154 154 153 154 157 160 156 104 86 91 104 120 129 122 117 119 113 107 103 99 95 91
140 145 144 146 148 150 153 156 155 155 155 153 149 144 145 146 150 156 159 164 166 168 168 170 173 179 190 210 211 111 112 116 148 151 140 140 129 123 119 114 110 106 102
145 150 150 150 151 149 154 162 158 158 160 155 152 153 149 151 156 165 174 177 179 180 184 189 193 198 209 248 259 221 112 127 157 168 172 155 144 137 132 128 123 119 115
162 169 167 163 162 158 166 156 157 159 160 157 158 161 159 165 178 183 192 193 192 192 197 204 207 208 210 274 293 300 131 156 173 187 192 170 158 152 148 145 141 137 131
164 168 176 176 171 169 166 159 164 160 162 170 174 177 175 177 190 196 191 200 199 198 203 217 217 215 221 240 258 253 212 184 185 199 202 184 171 166 163 162 159 155 149
164 169 172 172 173 179 173 171 173 173 177 186 191 188 181 187 197 197 199 201 198 196 199 209 214 225 236 243 245 249 232 198 189 196 205 193 182 177 174 175 174 171 167
177 181 179 172 170 173 173 180 182 186 191 197 197 198 192 193 199 198 203 205 205 201 201 208 218 226 234 240 241 237 231 212 196 194 201 199 190 185 183 184 186 186 183
194 196 187 181 175 169 174 183 186 192 198 198 202 206 201 200 198 197 201 205 209 209 209 210 215 222 228 228 235 231 226 213 203 197 201 202 198 192 191 192 194 195 195
195 203 200 195 184 181 188 191 188 188 194 201 207 210 209 206 202 200 203 207 210 209 210 212 219 225 233 232 234 230 223 213 204 203 203 202 203 201 198 200 202 202 203
177 187 205 203 191 197 202 204 202 195 196 204 207 210 213 211 208 205 209 213 207 204 207 210 212 218 228 229 231 230 223 213 209 207 204 204 203 204 207 207 207 207 208
154 161 174 185 194 208 215 216 218 215 215 215 213 214 217 216 212 212 219 220 205 206 209 213 212 208 220 226 229 231 227 219 212 207 208 208 207 205 205 213 209 208 210
99 99 102 107 169 223 219 224 238 240 241 233 227 226 223 221 217 216 225 225 211 213 218 216 216 213 215 217 225 230 228 228 220 213 211 210 211 212 207 210 207 210 209
68 65 60 61 28 46 109 193 221 239 247 248 243 241 236 233 228 223 231 230 221 223 226 221 218 220 226 202 209 255 265 242 235 229 216 212 215 214 209 210 206 200 208
70 61 56 49 42 46 79 190 212 242 253 250 261 264 255 250 244 235 234 235 229 230 234 227 218 220 221 184 186 207 269 285 254 231 216 217 220 213 214 213 208 203 199
67 53 47 35 36 33 24 44 25 24 353 339 307 287 276 267 260 250 244 242 239 230 233 231 220 219 227 213 194 185 204 233 255 264 233 226 217 212 216 211 210 207 202
83 58 47 39 39 29 31 50 68 96 263 274 288 294 303 298 284 272 261 253 249 243 241 240 231 226 225 227 216 218 219 198 207 266 270 245 230 223 218 215 212 209 204
87 64 48 47 41 31 36 44 56 41 307 305 320 325 324 323 319 309 286 271 264 257 254 250 245 235 228 230 219 210 227 229 219 230 261 262 261 246 230 223 216 210 206
79 63 53 53 40 30 35 39 48 39 12 4 355 346 337 334 340 346 331 307 286 276 269 262 254 247 242 239 235 216 207 209 213 219 240 243 241 251 258 246 232 218 205